Regional Weather Roundup
Issued by NWS

Home | Current Version | Previous Version | Text Only | Print | Product List | Glossary Off
Versions: 1 2 3 4 5 6 7 8 9 10 11 12 13 14 15 16 17 18 19 20 21 22 23 24 25 26 27 28 29 30 31 32 33 34 35 36 37 38 39 40 41 42 43 44 45 46 47 48 49 50

000
ASUS45 KCYS 182010
RWRWY

WYOMING REGIONAL WEATHER ROUNDUP
NATIONAL WEATHER SERVICE CHEYENNE WY
200 PM MDT WED OCT 18 2017

NOTE:  "FAIR" INDICATES FEW OR NO CLOUDS BELOW 12,000 FEET
WITH NO SIGNIFICANT WEATHER AND/OR OBSTRUCTIONS TO VISIBILITY.

WYZ001-182100-
YELLOWSTONE NATIONAL PARK

CITY           SKY/WX    TMP DP  RH WIND       PRES   REMARKS
LK YELLOWSTONE   N/A     51  20  29 VRB7      30.24S
W YELLOWSTONE  NOT AVBL

$$
WYZ002>013-054>058-071-098>099-182100-
NORTHERN WYOMING

CITY           SKY/WX    TMP DP  RH WIND       PRES   REMARKS
JACKSON        FAIR      61  18  18 S18G24    30.20F
CODY           FAIR      70   9   9 VRB7      30.03F
GREYBULL       FAIR      71  15  11 SE9       29.99F
WORLAND        FAIR      71  22  15 SE6       30.00F
SHERIDAN       FAIR      69  27  20 SE12      29.98F
BUFFALO        FAIR      67  21  17 S18       30.03F
GILLETTE         N/A     66  26  22 S18       30.03F
HULETT         FAIR      63  28  27 W10       30.06F
NEWCASTLE      FAIR      64  23  20 SE14G21   30.08F

$$
WYZ014>020-022>026-101>103-182100-
CENTRAL WYOMING

CITY           SKY/WX    TMP DP  RH WIND       PRES   REMARKS
BIG PINEY      FAIR      60  10  14 SE5       30.24F
PINEDALE       FAIR      59  10  14 N5        30.25F
DUBOIS         FAIR      61   5  11 NW24G35   30.15F
LANDER         FAIR      67  19  16 SE6       30.09F
RIVERTON       FAIR      67  11  11 S9        30.10F
CASPER         FAIR      70  12  10 SW18G24   30.10F
DOUGLAS        FAIR      71  17  12 S6        30.10F

$$
WYZ021-027>030-104>119-182100-
SOUTHERN WYOMING

CITY           SKY/WX    TMP DP  RH WIND       PRES   REMARKS
EVANSTON       FAIR      65   9  11 W15       30.26F
KEMMERER       FAIR      61  10  13 W15       30.27F
FORT BRIDGER   FAIR      67   8  10 W9G17     30.28F
ROCK SPRINGS   FAIR      63   8  11 W12G21    30.25F
DIXON          FAIR      68  10  10 S13G18    30.26F
RAWLINS        FAIR      65   7  10 SW18G28   30.23F
SARATOGA       FAIR      66   9  10 W17G29    30.24F
LARAMIE        FAIR      66   6   9 SW10G21   30.21F
CHEYENNE       FAIR      72   8   8 NW9       30.16F
TORRINGTON     FAIR      74  13   9 S12       30.07F
PINE BLUFFS    FAIR      72  14  11 NE3       30.13F

$$



USA.gov is the U.S. government's official web portal to all federal, state and local government web resources and services.